When you browse on this site, cookies collect data to enhance your experience and personalize the content and advertising you see.
Visit our Privacy Policy to learn more. By continuing to use the site, you agree to this use of cookies and data.
  • In Portugal
  • List of Countries
  • For 7 days
  • Water Temperature
  • Weather Map
  • Weather Widgets
  • user-avatar
    Login

    Hourly Weather Newcastle

    Today, 19 November, Tuesday

    Time Temperature Precipitation Wind Pressure Humidity
    00:00 +17°C° 0 mm 2 mps 759 mmHg 59%
    01:00 +16°C° 0 mm 2 mps 758 mmHg 53%
    02:00 +16°C° 0 mm 2 mps 758 mmHg 50%
    03:00 +16°C° 0 mm 3 mps 758 mmHg 47%
    04:00 +16°C° 0 mm 2 mps 758 mmHg 45%
    05:00 +18°C° 0 mm 3 mps 758 mmHg 42%
    06:00 +20°C° 0 mm 3 mps 758 mmHg 38%
    07:00 +22°C° 0 mm 3 mps 759 mmHg 35%
    08:00 +26°C° 0 mm 2 mps 758 mmHg 30%
    09:00 +30°C° 0 mm 2 mps 758 mmHg 24%
    10:00 +33°C° 0 mm 1 mps 758 mmHg 18%
    11:00 +35°C° 0 mm 2 mps 757 mmHg 17%
    12:00 +36°C° 0 mm 3 mps 757 mmHg 16%
    13:00 +37°C° 0 mm 4 mps 756 mmHg 15%
    14:00 +36°C° 0 mm 4 mps 756 mmHg 17%
    15:00 +34°C° 0 mm 5 mps 755 mmHg 19%
    16:00 +33°C° 0 mm 5 mps 755 mmHg 21%
    17:00 +29°C° 0 mm 5 mps 755 mmHg 25%
    18:00 +27°C° 0 mm 5 mps 756 mmHg 30%
    19:00 +23°C° 0 mm 5 mps 756 mmHg 35%
    20:00 +23°C° 0 mm 4 mps 757 mmHg 38%
    21:00 +22°C° 0 mm 4 mps 758 mmHg 41%
    22:00 +21°C° 0 mm 4 mps 758 mmHg 43%
    23:00 +21°C° 0 mm 5 mps 758 mmHg 57%

    Tomorrow, 20 November, Wednesday

    Time Temperature Precipitation Wind Pressure Humidity
    00:00 +21°C° 0 mm 6 mps 759 mmHg 70%
    01:00 +21°C° 0 mm 6 mps 759 mmHg 83%
    02:00 +20°C° 0 mm 6 mps 759 mmHg 82%
    03:00 +20°C° 0 mm 6 mps 759 mmHg 81%
    04:00 +20°C° 0 mm 5 mps 760 mmHg 80%
    05:00 +20°C° 0 mm 5 mps 760 mmHg 80%
    06:00 +20°C° 0 mm 5 mps 761 mmHg 79%
    07:00 +20°C° 0 mm 4 mps 761 mmHg 78%
    08:00 +21°C° 0 mm 4 mps 761 mmHg 74%
    09:00 +22°C° 0 mm 4 mps 761 mmHg 70%
    10:00 +22°C° 0 mm 4 mps 761 mmHg 66%
    11:00 +23°C° 0 mm 4 mps 761 mmHg 63%
    12:00 +25°C° 0 mm 4 mps 760 mmHg 60%
    13:00 +26°C° 0 mm 5 mps 760 mmHg 57%
    14:00 +26°C° 0 mm 4 mps 760 mmHg 60%
    15:00 +25°C° 0 mm 4 mps 759 mmHg 63%
    16:00 +25°C° 0 mm 4 mps 759 mmHg 66%
    17:00 +22°C° 0 mm 3 mps 760 mmHg 75%
    18:00 +21°C° 0 mm 3 mps 760 mmHg 84%
    19:00 +20°C° 0 mm 2 mps 761 mmHg 93%
    20:00 +19°C° 0 mm 2 mps 762 mmHg 95%
    21:00 +19°C° 0 mm 2 mps 762 mmHg 96%
    22:00 +20°C° 0 mm 1 mps 762 mmHg 97%
    23:00 +19°C° 0 mm 1 mps 762 mmHg 97%

    Day after tomorrow, 21 November, Thursday

    Time Temperature Precipitation Wind Pressure Humidity
    00:00 +19°C° 0 mm 1 mps 762 mmHg 97%
    01:00 +19°C° 0 mm 1 mps 761 mmHg 97%
    02:00 +19°C° 0 mm 1 mps 761 mmHg 98%
    03:00 +18°C° 0 mm 1 mps 761 mmHg 98%
    04:00 +18°C° 0 mm 1 mps 760 mmHg 98%
    05:00 +20°C° 0 mm 1 mps 761 mmHg 93%
    06:00 +21°C° 0 mm 1 mps 761 mmHg 88%
    07:00 +23°C° 0 mm 1 mps 761 mmHg 84%
    08:00 +25°C° 0 mm 1 mps 761 mmHg 71%
    09:00 +28°C° 0 mm 2 mps 760 mmHg 59%
    10:00 +30°C° 0 mm 3 mps 760 mmHg 46%
    11:00 +33°C° 0 mm 4 mps 759 mmHg 42%
    12:00 +34°C° 0 mm 5 mps 758 mmHg 39%
    13:00 +36°C° 0 mm 6 mps 757 mmHg 35%
    14:00 +35°C° 0 mm 7 mps 757 mmHg 37%
    15:00 +35°C° 0 mm 7 mps 756 mmHg 39%
    16:00 +34°C° 0 mm 8 mps 756 mmHg 42%
    17:00 +32°C° 0 mm 7 mps 756 mmHg 46%
    18:00 +30°C° 0 mm 7 mps 756 mmHg 50%
    19:00 +28°C° 0 mm 7 mps 757 mmHg 54%
    20:00 +26°C° 0 mm 6 mps 757 mmHg 57%
    21:00 +25°C° 0 mm 5 mps 757 mmHg 60%
    22:00 +23°C° 0 mm 5 mps 757 mmHg 63%
    23:00 +22°C° 0 mm 4 mps 757 mmHg 65%

    22 November, Friday

    Time Temperature Precipitation Wind Pressure Humidity
    00:00 +21°C° 0 mm 4 mps 757 mmHg 67%
    01:00 +21°C° 0 mm 3 mps 756 mmHg 69%
    02:00 +22°C° 0 mm 3 mps 757 mmHg 63%
    03:00 +23°C° 0 mm 4 mps 757 mmHg 57%
    04:00 +25°C° 0 mm 4 mps 757 mmHg 52%
    05:00 +26°C° 0 mm 4 mps 757 mmHg 46%
    06:00 +28°C° 0 mm 4 mps 758 mmHg 41%
    07:00 +30°C° 0 mm 4 mps 758 mmHg 36%
    08:00 +32°C° 0 mm 4 mps 759 mmHg 33%
    09:00 +34°C° 0 mm 4 mps 759 mmHg 30%
    10:00 +36°C° 0 mm 4 mps 759 mmHg 27%
    11:00 +34°C° 0 mm 4 mps 758 mmHg 37%
    12:00 +32°C° 0 mm 4 mps 758 mmHg 46%
    13:00 +29°C° 0 mm 4 mps 758 mmHg 56%
    14:00 +28°C° 0.4 mm 4 mps 758 mmHg 63%
    15:00 +26°C° 0.4 mm 4 mps 758 mmHg 71%
    16:00 +25°C° 0.4 mm 5 mps 758 mmHg 78%
    17:00 +23°C° 0.4 mm 4 mps 759 mmHg 82%
    18:00 +22°C° 0.4 mm 3 mps 759 mmHg 85%
    19:00 +23°C° 0.4 mm 2 mps 760 mmHg 88%
    20:00 +21°C° 0.1 mm 2 mps 760 mmHg 90%
    21:00 +22°C° 0.1 mm 1 mps 760 mmHg 91%
    22:00 +21°C° 0.1 mm 1 mps 760 mmHg 93%
    23:00 +20°C° 0.3 mm 2 mps 759 mmHg 94%

    23 November, Saturday

    Time Temperature Precipitation Wind Pressure Humidity
    00:00 +20°C° 0.3 mm 3 mps 759 mmHg 95%
    01:00 +20°C° 0.3 mm 5 mps 759 mmHg 97%
    02:00 +20°C° 0.1 mm 4 mps 759 mmHg 97%
    03:00 +19°C° 0.1 mm 3 mps 759 mmHg 98%
    04:00 +20°C° 0.1 mm 1 mps 758 mmHg 98%
    05:00 +21°C° 0 mm 1 mps 759 mmHg 95%
    06:00 +22°C° 0 mm 1 mps 759 mmHg 92%
    07:00 +23°C° 0 mm 1 mps 759 mmHg 89%
    08:00 +26°C° 0 mm 2 mps 759 mmHg 74%
    09:00 +29°C° 0 mm 2 mps 758 mmHg 59%
    10:00 +33°C° 0 mm 3 mps 758 mmHg 44%
    11:00 +35°C° 0 mm 3 mps 758 mmHg 39%
    12:00 +36°C° 0 mm 4 mps 757 mmHg 35%
    13:00 +39°C° 0 mm 5 mps 757 mmHg 31%
    14:00 +36°C° 0.1 mm 6 mps 756 mmHg 36%
    15:00 +35°C° 0.1 mm 6 mps 756 mmHg 41%
    16:00 +33°C° 0.1 mm 7 mps 756 mmHg 45%
    17:00 +30°C° 1 mm 6 mps 757 mmHg 55%
    18:00 +27°C° 1 mm 5 mps 757 mmHg 65%
    19:00 +25°C° 1 mm 4 mps 758 mmHg 75%
    20:00 +23°C° 0.9 mm 4 mps 758 mmHg 80%
    21:00 +22°C° 0.9 mm 4 mps 759 mmHg 85%
    22:00 +21°C° 0.9 mm 4 mps 759 mmHg 90%
    23:00 +21°C° 0.2 mm 4 mps 759 mmHg 92%

    24 November, Sunday

    Time Temperature Precipitation Wind Pressure Humidity
    00:00 +21°C° 0.2 mm 4 mps 759 mmHg 95%
    01:00 +21°C° 0.2 mm 5 mps 759 mmHg 97%
    02:00 +21°C° 0.1 mm 5 mps 759 mmHg 96%
    03:00 +21°C° 0.1 mm 5 mps 760 mmHg 95%
    04:00 +21°C° 0.1 mm 6 mps 760 mmHg 94%
    05:00 +21°C° 0.1 mm 5 mps 760 mmHg 93%
    06:00 +21°C° 0.1 mm 5 mps 761 mmHg 92%
    07:00 +21°C° 0.1 mm 5 mps 762 mmHg 91%
    08:00 +21°C° 0.1 mm 5 mps 762 mmHg 88%
    09:00 +21°C° 0.1 mm 6 mps 762 mmHg 85%
    10:00 +20°C° 0.1 mm 6 mps 762 mmHg 82%
    11:00 +21°C° 0 mm 5 mps 762 mmHg 77%
    12:00 +22°C° 0 mm 5 mps 761 mmHg 71%
    13:00 +23°C° 0 mm 5 mps 761 mmHg 65%
    14:00 +23°C° 0 mm 4 mps 761 mmHg 67%
    15:00 +23°C° 0 mm 4 mps 760 mmHg 69%
    16:00 +22°C° 0 mm 4 mps 760 mmHg 72%
    17:00 +21°C° 0 mm 3 mps 760 mmHg 77%
    18:00 +21°C° 0 mm 3 mps 761 mmHg 81%
    19:00 +20°C° 0 mm 3 mps 761 mmHg 86%
    20:00 +19°C° 0 mm 2 mps 762 mmHg 88%
    21:00 +19°C° 0 mm 2 mps 762 mmHg 89%
    22:00 +19°C° 0 mm 2 mps 762 mmHg 91%
    23:00 +19°C° 0 mm 2 mps 762 mmHg 89%
    Show more